This is the latest recevied weather packets stored in our database for station/object W1SCW. If no packets are shown the sender has not sent any weather packets the latest 10 day(s).
| Time | Temp. | Humidity | Pressure | Rain* | Wind** | Luminosity | Snow |
|---|---|---|---|---|---|---|---|
| 1777585888 | 25.56° C | 75% | 1007.2 hPa | 0 mm | - | 486 W/m² | - |
| 1777585582 | 25.56° C | 77% | 1007.4 hPa | 0 mm | - | 507 W/m² | - |
| 1777585278 | 25° C | 78% | 1007.3 hPa | 0 mm | - | 512 W/m² | - |
| 1777584973 | 25.56° C | 78% | 1007.2 hPa | 0 mm | - | 586 W/m² | - |
| 1777584670 | 24.44° C | 80% | 1007.3 hPa | 0 mm | - | 649 W/m² | - |
| 1777584367 | 25° C | 79% | 1007.2 hPa | 0 mm | - | 442 W/m² | - |
| 1777584064 | 24.44° C | 80% | 1007.5 hPa | 0 mm | - | 580 W/m² | - |
| 1777583758 | 23.89° C | 82% | 1007.5 hPa | 0 mm | - | 718 W/m² | - |
| 1777583457 | 24.44° C | 81% | 1008.1 hPa | 0 mm | - | 426 W/m² | - |
| 1777583151 | 24.44° C | 81% | 1008.1 hPa | 0 mm | - | 205 W/m² | - |
| 1777582847 | 24.44° C | 81% | 1008.2 hPa | 0 mm | - | 168 W/m² | - |
| 1777582544 | 25° C | 81% | 1008.3 hPa | 0 mm | - | 169 W/m² | - |
| 1777582240 | 25° C | 81% | 1008.3 hPa | 0 mm | - | 164 W/m² | - |
| 1777581938 | 25° C | 79% | 1008.4 hPa | 0 mm | - | 202 W/m² | - |
| 1777581633 | 25.56° C | 79% | 1008.9 hPa | 0 mm | - | 307 W/m² | - |
| 1777581327 | 26.11° C | 77% | 1009.2 hPa | 0 mm | - | 444 W/m² | - |
| 1777581022 | 26.11° C | 77% | 1008.9 hPa | 0 mm | - | 312 W/m² | - |
| 1777580721 | 26.11° C | 78% | 1008.7 hPa | 0 mm | - | 349 W/m² | - |
| 1777580417 | 26.67° C | 76% | 1008.9 hPa | 0 mm | - | 382 W/m² | - |
| 1777580113 | 26.67° C | 77% | 1008.8 hPa | 0 mm | - | 477 W/m² | - |
| 1777579810 | 27.22° C | 76% | 1008.7 hPa | 0 mm | - | 411 W/m² | - |
| 1777579508 | 26.67° C | 76% | 1008.6 hPa | 0 mm | - | 701 W/m² | - |
| 1777579198 | 26.67° C | 76% | 1008.7 hPa | 0 mm | - | 403 W/m² | - |
| 1777578893 | 26.67° C | 77% | 1008.7 hPa | 0 mm | - | 381 W/m² | - |
| 1777578588 | 26.67° C | 77% | 1008.5 hPa | 0 mm | - | 207 W/m² | - |
* Rain latest hour (hover to see other rain measurements)
** Current wind speed in m/s (hover to see current wind gust speed)